This is the latest recevied weather packets stored in our database for station/object HS5XHC-1. If no packets are shown the sender has not sent any weather packets the latest 1 day(s).
| Time | Temp. | Humidity | Pressure | Rain* | Wind** | Luminosity | Snow |
|---|---|---|---|---|---|---|---|
| 1778017617 | 27.22° C | 55% | 967 hPa | - | 0 m/s | 0 W/m² | - |
| 1778016993 | 27.22° C | 54% | 967 hPa | - | 0 m/s | 0 W/m² | - |
| 1778016369 | 27.22° C | 54% | 967 hPa | - | 0 m/s | 0 W/m² | - |
| 1778015745 | 27.22° C | 54% | 966 hPa | - | 0 m/s | 0 W/m² | - |
| 1778015121 | 27.22° C | 55% | 966 hPa | - | 0 m/s | 0 W/m² | - |
| 1778014497 | 26.67° C | 57% | 966 hPa | - | 0 m/s | 0 W/m² | - |
| 1778013873 | 27.22° C | 55% | 966 hPa | - | 0 m/s | 0 W/m² | - |
| 1778013249 | 27.78° C | 54% | 966 hPa | - | 0 m/s | 0 W/m² | - |
| 1778012625 | 27.22° C | 53% | 966 hPa | - | 0 m/s | 0 W/m² | - |
| 1778012001 | 27.78° C | 52% | 966 hPa | - | 0 m/s | 0 W/m² | - |
| 1778011377 | 27.78° C | 51% | 966 hPa | - | 0 m/s | 0 W/m² | - |
| 1778010874 | 28.33° C | 51% | 967 hPa | - | 0 m/s | 0 W/m² | - |
| 1778010250 | 28.33° C | 50% | 967 hPa | - | 0 m/s | 0 W/m² | - |
| 1778009626 | 27.78° C | 53% | 967 hPa | - | 0 m/s | 0 W/m² | - |
| 1778009002 | 27.78° C | 53% | 967 hPa | - | 0 m/s | 0 W/m² | - |
| 1778008379 | 28.33° C | 53% | 967 hPa | - | 0 m/s | 0 W/m² | - |
| 1778007755 | 28.33° C | 54% | 967 hPa | - | 0 m/s | 0 W/m² | - |
| 1778007131 | 27.78° C | 54% | 968 hPa | - | 0 m/s | 0 W/m² | - |
| 1778006507 | 28.33° C | 54% | 968 hPa | - | 0 m/s | 0 W/m² | - |
| 1778005882 | 28.33° C | 54% | 968 hPa | - | 0 m/s | 0 W/m² | - |
| 1778005258 | 29.44° C | 57% | 967 hPa | - | 0 m/s | 0 W/m² | - |
| 1778004634 | 30° C | 54% | 966 hPa | - | 0 m/s | 0 W/m² | - |
| 1778004020 | 30° C | 55% | 967 hPa | - | 0 m/s | 0 W/m² | - |
| 1778003386 | 31.11° C | 53% | 967 hPa | - | 0 m/s | 0 W/m² | - |
| 1778002762 | 31.11° C | 53% | 967 hPa | - | 0 m/s | 0 W/m² | - |
* Rain since midnight (hover to see other rain measurements)
** Current wind speed in m/s (hover to see current wind gust speed)